GW0378 Weather Reports


Display with metric or nautical units.
time (UTC)temp
F
wind
direction
speed
MPH
gust
MPH
rain 1hr
in
rain 24hr
in
rain mn
in
humidity
%
barometer
mb
20260906231548 65 218 2.0 2.0 0.00 0.61 0.61 72 1013.5
20260906231044 65 120 0.0 2.0 0.00 0.61 0.61 71 1013.4
20260906230542 65 324 2.0 5.0 0.00 0.61 0.61 69 1013.4
20260906230037 66 283 1.0 2.0 0.00 0.61 0.61 70 1013.5
20260906225530 66 243 1.0 3.0 0.00 0.61 0.61 70 1013.4
20260906225026 66 257 2.0 4.0 0.00 0.61 0.61 70 1013.2
20260906224517 67 278 2.0 5.0 0.00 0.61 0.61 68 1013.7
20260906224013 67 287 0.0 5.0 0.00 0.61 0.61 66 1013.7
20260906223509 69 331 1.0 5.0 0.00 0.61 0.61 65 1013.7
20260906223007 69 256 5.0 7.0 0.00 0.61 0.61 65 1013.6
20260906222502 68 282 3.0 8.0 0.00 0.61 0.61 66 1013.7
20260906221959 68 323 3.0 7.0 0.00 0.61 0.61 65 1014.0
20260906221453 68 270 3.0 5.0 0.00 0.61 0.61 67 1013.6
20260906220948 67 292 3.0 6.0 0.00 0.61 0.61 68 1013.9
20260906220443 68 279 3.0 6.0 0.00 0.61 0.61 67 1013.9
20260906215943 68 260 2.0 4.0 0.00 0.61 0.61 68 1013.9
20260906215437 67 274 3.0 5.0 0.00 0.61 0.61 69 1013.8
20260906214935 67 292 2.0 5.0 0.00 0.61 0.61 68 1014.2
20260906214435 67 287 2.0 4.0 0.00 0.61 0.61 70 1014.2
20260906213934 66 0 1.0 4.0 0.00 0.61 0.61 69 1014.1
20260906213428 67 303 3.0 8.0 0.00 0.61 0.61 70 1014.4
20260906212926 67 272 5.0 5.0 0.00 0.61 0.61 72 1014.2
20260906212421 66 237 3.0 6.0 0.00 0.61 0.61 73 1014.6
20260906211916 66 243 1.0 6.0 0.00 0.61 0.61 74 1014.7
20260906211411 66 270 4.0 6.0 0.00 0.61 0.61 75 1014.9
20260906210911 66 274 2.0 5.0 0.00 0.61 0.61 76 1015.0
20260906210407 64 288 5.0 7.0 0.00 0.61 0.61 79 1015.0
20260906205901 65 283 6.0 7.0 0.00 0.61 0.61 77 1015.0
20260906205358 65 250 2.0 6.0 0.00 0.61 0.61 78 1015.1
20260906204853 63 312 2.0 5.0 0.00 0.61 0.61 82 1015.2
20260906204352 63 335 3.0 7.0 0.00 0.61 0.61 82 1015.6
20260906203852 63 330 4.0 7.0 0.00 0.61 0.61 81 1015.5
20260906203346 64 278 4.0 7.0 0.00 0.61 0.61 84 1015.6
20260906202843 63 303 0.0 5.0 0.00 0.61 0.61 84 1015.5
20260906202338 63 18 2.0 5.0 0.00 0.61 0.61 83 1015.8
20260906201838 62 331 5.0 7.0 0.00 0.61 0.61 83 1016.1
20260906201332 62 281 4.0 5.0 0.00 0.61 0.61 86 1015.9
20260906200828 61 250 3.0 6.0 0.00 0.61 0.61 85 1015.9
20260906200324 61 196 3.0 4.0 0.00 0.61 0.61 87 1016.2
20260906195819 60 337 1.0 4.0 0.00 0.61 0.61 86 1016.0
20260906195315 59 213 4.0 6.0 0.00 0.61 0.61 87 1016.4
20260906194811 60 275 4.0 4.0 0.00 0.61 0.61 89 1016.4
20260906194306 59 274 3.0 4.0 0.00 0.61 0.61 88 1016.4
20260906193801 59 105 2.0 4.0 0.00 0.61 0.61 89 1016.5
20260906193255 59 41 2.0 3.0 0.00 0.61 0.61 90 1016.6
20260906192751 59 306 0.0 4.0 0.00 0.61 0.61 91 1017.1
20260906192246 60 0 3.0 3.0 0.00 0.61 0.61 90 1017.0
20260906191745 60 26 4.0 5.0 0.00 0.61 0.61 91 1017.2
20260906191239 59 258 4.0 7.0 0.00 0.61 0.61 92 1017.5
20260906190734 58 36 0.0 3.0 0.05 0.61 0.61 93 1017.6
20260906190228 57 81 2.0 4.0 0.09 0.61 0.61 94 1017.7
20260906185728 57 151 0.0 2.0 0.05 0.60 0.60 93 1018.1
20260906185227 57 4 2.0 3.0 0.07 0.59 0.59 93 1017.9
20260906184721 57 336 2.0 3.0 0.05 0.59 0.59 91 1018.0
20260906184217 57 65 2.0 3.0 0.05 0.58 0.58 90 1017.8
20260906183713 57 102 1.0 3.0 0.05 0.58 0.58 90 1017.7
20260906183209 57 90 0.0 1.0 0.05 0.57 0.57 90 1017.7
20260906182709 57 81 0.0 0.0 0.02 0.57 0.57 89 1017.5
20260906182205 57 78 0.0 2.0 0.00 0.57 0.57 89 1017.5
20260906181659 57 101 3.0 5.0 0.00 0.57 0.57 88 1017.4
20260906181155 57 334 0.0 2.0 0.00 0.57 0.57 88 1017.1
20260906180650 57 49 0.0 2.0 0.00 0.57 0.57 87 1017.2
20260906180145 57 90 1.0 2.0 0.00 0.57 0.57 87 1017.0
20260906175643 56 215 1.0 4.0 0.00 0.57 0.57 88 1017.0
20260906175138 56 196 2.0 3.0 0.00 0.57 0.57 90 1017.1
20260906174636 56 254 1.0 7.0 0.00 0.57 0.57 90 1017.2
20260906174132 56 260 4.0 9.0 0.00 0.57 0.57 89 1017.2
20260906173627 57 158 3.0 4.0 0.00 0.57 0.57 85 1017.0
20260906173122 57 250 4.0 9.0 0.00 0.57 0.57 86 1016.7
20260906172621 59 346 0.0 12.0 0.00 0.57 0.57 80 1016.4
20260906172117 58 139 2.0 6.0 0.00 0.57 0.57 82 1016.1
20260906171616 57 90 0.0 5.0 0.00 0.57 0.57 85 1016.5
20260906171113 57 86 2.0 8.0 0.00 0.57 0.57 87 1016.2
20260906170609 58 77 2.0 3.0 0.00 0.57 0.57 86 1016.7
20260906170108 58 337 0.0 1.0 0.00 0.57 0.57 83 1017.0
20260906165604 58 286 1.0 2.0 0.00 0.57 0.57 81 1017.0
20260906165059 59 294 2.0 3.0 0.00 0.57 0.57 80 1017.1
20260906164558 58 160 0.0 1.0 0.00 0.57 0.57 80 1017.0
20260906164054 58 160 0.0 1.0 0.00 0.57 0.57 80 1017.2
20260906163549 58 237 0.0 3.0 0.00 0.57 0.57 81 1016.8
20260906163045 58 141 2.0 7.0 0.00 0.57 0.57 80 1016.9
20260906162542 59 90 4.0 6.0 0.00 0.57 0.57 80 1016.8
20260906162037 59 173 0.0 1.0 0.00 0.57 0.57 79 1017.1
20260906161532 59 157 2.0 6.0 0.00 0.57 0.57 79 1016.9
20260906161031 58 159 4.0 6.0 0.00 0.57 0.57 81 1016.9
20260906160531 57 184 2.0 3.0 0.00 0.57 0.57 86 1016.9
20260906160029 57 262 3.0 3.0 0.00 0.57 0.57 86 1016.8
20260906155526 57 285 0.0 3.0 0.00 0.57 0.57 88 1016.7
20260906155023 56 90 0.0 1.0 0.00 0.57 0.57 89 1016.5
20260906154518 56 249 0.0 2.0 0.00 0.57 0.57 88 1016.7
20260906154016 57 320 3.0 4.0 0.00 0.57 0.57 86 1016.6
20260906153516 57 148 2.0 4.0 0.00 0.57 0.57 82 1016.5
20260906153011 57 80 2.0 4.0 0.00 0.57 0.57 86 1016.5
20260906152505 56 264 1.0 3.0 0.00 0.57 0.57 87 1016.4
20260906152004 56 285 1.0 2.0 0.00 0.57 0.57 87 1016.4
20260906151500 56 29 1.0 2.0 0.00 0.57 0.57 86 1016.5
20260906150955 56 334 0.0 2.0 0.00 0.57 0.57 87 1016.5
20260906150450 56 26 1.0 2.0 0.00 0.57 0.57 86 1016.5
20260906145950 57 320 0.0 2.0 0.00 0.57 0.57 85 1016.5
20260906145449 56 9 0.0 4.0 0.00 0.57 0.57 85 1016.6
20260906144944 57 65 2.0 5.0 0.00 0.57 0.57 82 1016.8
20260906144439 58 105 2.0 7.0 0.00 0.57 0.57 80 1016.8
20260906143934 57 119 0.0 7.0 0.00 0.57 0.57 81 1016.9
20260906143430 57 124 5.0 6.0 0.00 0.57 0.57 82 1016.7
20260906142925 56 147 3.0 4.0 0.00 0.57 0.57 83 1016.9
20260906142424 56 253 2.0 2.0 0.00 0.57 0.57 84 1016.8
20260906141920 56 210 2.0 4.0 0.00 0.57 0.57 83 1016.8
20260906141414 56 70 0.0 2.0 0.00 0.57 0.57 83 1017.0
20260906140908 56 151 0.0 6.0 0.00 0.57 0.57 84 1016.7
20260906140403 56 132 2.0 6.0 0.00 0.57 0.57 84 1016.9
20260906135901 56 112 6.0 11.0 0.00 0.57 0.57 84 1016.2
20260906135400 56 109 6.0 7.0 0.00 0.57 0.57 83 1016.4
20260906134856 56 123 5.0 8.0 0.00 0.57 0.57 83 1016.4
20260906134351 56 127 6.0 11.0 0.00 0.57 0.57 83 1016.0
20260906133846 57 106 7.0 11.0 0.00 0.57 0.57 81 1015.9
20260906133342 57 100 6.0 14.0 0.00 0.57 0.57 81 1016.1
20260906132837 56 132 8.0 9.0 0.00 0.57 0.57 82 1016.1
20260906132332 57 116 9.0 15.0 0.00 0.57 0.57 81 1015.8
20260906131828 57 137 4.0 12.0 0.00 0.57 0.57 81 1016.1
20260906131323 56 99 9.0 12.0 0.00 0.57 0.57 81 1016.2
20260906130819 55 129 5.0 10.0 0.00 0.57 0.57 87 1016.1
20260906130313 55 97 7.0 10.0 0.00 0.57 0.57 87 1016.0
20260906125812 56 116 6.0 11.0 0.00 0.57 0.57 85 1016.4
20260906125309 56 143 5.0 13.0 0.00 0.57 0.57 84 1016.5
20260906124804 57 120 6.0 14.0 0.00 0.57 0.57 83 1016.4
20260906124300 57 71 7.0 11.0 0.00 0.57 0.57 82 1017.0
20260906123759 56 108 6.0 15.0 0.00 0.57 0.57 84 1016.8
20260906123254 56 127 8.0 11.0 0.00 0.57 0.57 84 1016.6
20260906122754 56 119 5.0 11.0 0.00 0.57 0.57 85 1016.9
20260906122249 56 127 6.0 13.0 0.00 0.57 0.57 84 1016.8
20260906121746 55 114 5.0 9.0 0.00 0.57 0.57 87 1016.7
20260906121242 55 144 3.0 13.0 0.00 0.57 0.57 88 1016.7
20260906120737 55 114 5.0 8.0 0.00 0.57 0.57 89 1016.8
20260906120234 55 125 3.0 3.0 0.00 0.57 0.57 89 1017.2
20260906115729 55 90 3.0 4.0 0.00 0.57 0.57 88 1016.7
20260906115224 56 103 0.0 3.0 0.00 0.57 0.57 87 1017.1
20260906114723 55 90 1.0 2.0 0.00 0.57 0.57 88 1017.0
20260906114218 55 154 0.0 0.0 0.00 0.57 0.57 87 1017.2
20260906113714 56 188 0.0 2.0 0.00 0.57 0.57 87 1017.4
20260906113213 57 201 0.0 3.0 0.00 0.57 0.57 84 1017.0
20260906112713 57 236 2.0 4.0 0.00 0.57 0.57 84 1017.0
20260906112210 56 303 2.0 3.0 0.00 0.57 0.57 87 1016.9
20260906111709 56 279 13.0 13.0 0.00 0.57 0.57 86 1017.5
20260906111203 56 243 3.0 7.0 0.00 0.57 0.57 87 1016.9
20260906110659 55 32 6.0 7.0 0.00 0.57 0.57 89 1015.7
20260906110154 55 30 2.0 9.0 0.00 0.57 0.57 88 1017.4
20260906105648 55 99 4.0 5.0 0.00 0.57 0.57 90 1017.7
20260906105144 56 13 3.0 3.0 0.00 0.57 0.57 89 1017.8
20260906104643 56 252 3.0 10.0 0.00 0.57 0.57 88 1017.7
20260906104137 58 250 6.0 8.0 0.00 0.57 0.57 81 1017.5
20260906103635 57 175 2.0 6.0 0.00 0.57 0.57 81 1016.8
20260906103131 55 70 4.0 12.0 0.00 0.57 0.57 91 1016.2
20260906102625 55 102 6.0 15.0 0.00 0.57 0.57 93 1016.9
20260906102120 55 90 2.0 3.0 0.00 0.57 0.57 92 1018.3
20260906101614 55 240 4.0 11.0 0.00 0.57 0.57 92 1018.7
20260906101109 55 229 6.0 8.0 0.00 0.57 0.57 93 1018.3
20260906100605 56 210 5.0 7.0 0.00 0.57 0.57 90 1017.5
20260906100104 56 270 1.0 13.0 0.00 0.57 0.57 87 1017.2
20260906095604 55 275 2.0 6.0 0.00 0.57 0.57 90 1017.2
20260906095100 55 111 15.0 19.0 0.00 0.57 0.57 89 1016.2
20260906094558 55 128 13.0 30.0 0.00 0.57 0.57 91 1016.2
20260906094054 55 105 14.0 20.0 0.00 0.57 0.57 95 1017.2
20260906093550 55 220 3.0 8.0 0.00 0.57 0.57 95 1019.2
20260906093045 55 237 8.0 10.0 0.07 0.57 0.57 95 1018.7
20260906092541 55 294 2.0 7.0 0.14 0.56 0.56 95 1017.4
20260906092035 55 122 6.0 18.0 0.14 0.56 0.56 95 1017.6
20260906091530 55 159 3.0 12.0 0.09 0.54 0.54 95 1018.0
20260906091027 55 110 5.0 10.0 0.05 0.53 0.53 95 1018.0
20260906090522 55 185 0.0 23.0 0.02 0.52 0.52 95 1018.3
20260906090017 55 119 9.0 22.0 0.07 0.52 0.52 96 1018.2
20260906085516 55 165 2.0 14.0 0.07 0.52 0.52 96 1017.8
20260906085015 55 177 3.0 18.0 0.21 0.51 0.51 96 1017.8
20260906084510 55 145 4.0 14.0 0.45 0.50 0.50 96 1018.1
20260906084009 55 98 5.0 14.0 0.50 0.48 0.48 96 1018.5
20260906083505 55 72 0.0 4.0 0.45 0.43 0.43 96 1019.5
20260906083004 55 90 1.0 2.0 0.31 0.39 0.39 96 1020.0
20260906082459 55 128 5.0 6.0 0.12 0.35 0.35 96 1019.6
20260906081955 55 154 1.0 3.0 0.07 0.34 0.34 95 1019.1
20260906081450 55 100 4.0 4.0 0.12 0.33 0.33 95 1019.1
20260906080946 55 85 0.0 3.0 0.24 0.33 0.33 95 1019.2
20260906080443 55 90 2.0 3.0 0.14 0.31 0.31 94 1019.0
20260906075943 56 186 3.0 4.0 0.00 0.29 0.29 94 1019.0
20260906075437 56 313 11.0 11.0 0.00 0.29 0.29 94 1019.0
20260906074932 55 180 0.0 3.0 0.00 0.29 0.29 95 1018.2
20260906074427 55 180 0.0 1.0 0.00 0.29 0.29 94 1017.7
20260906073926 55 128 3.0 3.0 0.00 0.29 0.29 94 1017.1
20260906073421 55 139 2.0 5.0 0.00 0.29 0.29 94 1017.1
20260906072917 55 115 0.0 4.0 0.00 0.29 0.29 93 1017.4
20260906072412 55 90 4.0 4.0 0.00 0.29 0.29 93 1017.1
20260906071908 55 137 5.0 14.0 0.00 0.29 0.29 93 1016.7
20260906071404 55 139 5.0 16.0 0.00 0.29 0.29 92 1016.9
20260906070859 55 115 7.0 15.0 0.00 0.29 0.29 92 1016.9
20260906070355 55 154 3.0 11.0 0.00 0.29 0.29 93 1016.8
20260906065850 55 133 3.0 22.0 0.00 0.29 0.29 94 1016.9
20260906065344 54 161 2.0 13.0 0.12 0.29 0.29 95 1016.8
20260906064840 54 116 10.0 20.0 0.52 0.29 0.29 95 1016.8
20260906064337 54 152 2.0 18.0 1.49 0.27 0.27 94 1016.5
20260906063831 56 79 9.0 28.0 1.21 0.20 0.20 92 1016.2
20260906063326 59 74 6.0 8.0 0.12 0.02 0.02 85 1017.9
20260906062822 59 120 0.0 3.0 0.00 0.00 0.00 83 1018.9
20260906062321 59 189 5.0 6.0 0.00 0.00 0.00 83 1018.0
20260906061816 59 172 0.0 3.0 0.00 0.00 0.00 81 1017.1
20260906061312 60 341 2.0 5.0 0.00 0.00 0.00 79 1017.2
20260906060807 60 319 0.0 3.0 0.00 0.00 0.00 78 1017.1
20260906060305 60 90 0.0 2.0 0.00 0.00 0.00 79 1017.5
20260906055800 60 16 0.0 2.0 0.00 0.00 0.00 79 1017.1
20260906055255 60 90 2.0 4.0 0.00 0.00 0.00 78 1017.2
20260906054750 60 73 2.0 5.0 0.00 0.00 0.00 77 1017.4
20260906054246 60 69 0.0 3.0 0.00 0.00 0.00 78 1017.2
20260906053743 60 45 2.0 3.0 0.00 0.00 0.00 78 1017.7
20260906053238 59 180 0.0 2.0 0.00 0.00 0.00 80 1017.7
20260906052733 60 162 0.0 2.0 0.00 0.00 0.00 79 1017.4
20260906052229 59 166 1.0 1.0 0.00 0.00 0.00 80 1017.6
20260906051726 59 96 0.0 3.0 0.00 0.00 0.00 79 1017.5
20260906051225 59 154 1.0 3.0 0.00 0.00 0.00 81 1017.2
20260906050721 59 29 0.0 1.0 0.00 0.00 0.00 81 1017.4
20260906050216 59 84 1.0 3.0 0.00 0.00 0.00 82 1017.4
20260906045714 59 168 1.0 2.0 0.00 0.00 0.00 81 1017.4
20260906045210 59 154 1.0 3.0 0.00 0.00 0.00 80 1017.2
20260906044706 60 8 0.0 2.0 0.00 0.00 0.00 78 1017.2
20260906044200 61 16 2.0 2.0 0.00 0.00 0.00 75 1017.4
20260906043656 61 111 1.0 3.0 0.00 0.00 0.00 74 1017.6
20260906043152 61 141 3.0 6.0 0.00 0.00 0.00 75 1017.4
20260906042651 61 119 2.0 5.0 0.00 0.00 0.00 74 1017.4
20260906042145 61 127 3.0 5.0 0.00 0.00 0.00 75 1017.6
20260906041641 61 119 2.0 4.0 0.00 0.00 0.00 76 1017.6
20260906041136 61 97 1.0 6.0 0.00 0.00 0.00 76 1017.9
20260906040631 60 72 3.0 5.0 0.00 0.00 0.00 76 1017.8
20260906040127 60 135 2.0 4.0 0.00 0.00 0.00 76 1017.2
20260906035622 60 139 2.0 4.0 0.00 0.00 0.00 76 1017.7
20260906035118 60 148 2.0 5.0 0.00 0.00 0.00 75 1017.6
20260906034618 61 120 1.0 2.0 0.00 0.00 0.00 75 1017.4
20260906034112 61 148 2.0 3.0 0.00 0.00 0.00 74 1017.6
20260906033608 61 106 0.0 1.0 0.00 0.00 0.00 75 1017.5
20260906033103 62 105 2.0 3.0 0.00 0.00 0.00 74 1017.6
20260906032559 62 120 0.0 0.0 0.00 0.00 0.00 71 1017.2
20260906032054 63 188 0.0 0.0 0.00 0.00 0.00 69 1017.5
20260906031549 63 120 0.0 2.0 0.00 0.00 0.00 68 1017.1
20260906031045 64 83 1.0 2.0 0.00 0.00 0.00 68 1017.1
20260906030544 64 288 2.0 3.0 0.00 0.00 0.00 66 1016.9
20260906030043 64 249 3.0 3.0 0.00 0.00 0.00 67 1017.1
20260906025538 64 0 1.0 3.0 0.00 0.00 0.00 67 1016.8
20260906025036 64 122 5.0 8.0 0.00 0.00 0.00 67 1016.8
20260906024532 65 90 2.0 11.0 0.00 0.00 0.00 66 1016.6
20260906024032 65 129 3.0 12.0 0.00 0.00 0.00 65 1016.7
20260906023528 65 203 0.0 6.0 0.00 0.00 0.00 64 1016.6
20260906023022 65 79 2.0 7.0 0.00 0.00 0.00 63 1016.4
20260906022518 65 29 0.0 3.0 0.00 0.00 0.00 63 1016.6
20260906022013 65 160 1.0 2.0 0.00 0.00 0.00 63 1016.6
20260906021508 65 90 2.0 5.0 0.00 0.00 0.00 63 1016.1
20260906021002 66 97 3.0 9.0 0.00 0.00 0.00 63 1016.4
20260906020456 66 105 2.0 5.0 0.00 0.00 0.00 63 1016.7
20260906015955 66 194 1.0 8.0 0.00 0.00 0.00 63 1016.4
20260906015455 66 90 0.0 5.0 0.00 0.00 0.00 64 1016.4
20260906014950 67 114 3.0 5.0 0.00 0.00 0.00 63 1016.4
20260906014449 67 103 0.0 7.0 0.00 0.00 0.00 63 1015.9
20260906013946 67 67 3.0 11.0 0.00 0.00 0.00 63 1015.8
20260906013441 68 54 0.0 3.0 0.00 0.00 0.00 62 1015.8
20260906012937 68 98 0.0 12.0 0.00 0.00 0.00 61 1015.7
20260906012431 69 102 3.0 7.0 0.00 0.00 0.00 59 1015.7
20260906011930 69 102 5.0 6.0 0.00 0.00 0.00 57 1015.7
20260906011426 70 168 0.0 1.0 0.00 0.00 0.00 55 1016.0
20260906010921 70 203 0.0 2.0 0.00 0.00 0.00 53 1015.8
20260906010417 71 115 0.0 4.0 0.00 0.00 0.00 51 1015.7
20260906005913 71 0 1.0 4.0 0.00 0.00 0.00 49 1015.7
20260906005412 71 90 0.0 4.0 0.00 0.00 0.00 50 1015.8
20260906004910 71 259 0.0 6.0 0.00 0.00 0.00 50 1015.6
20260906004405 71 261 4.0 5.0 0.00 0.00 0.00 49 1015.5
20260906003901 72 343 4.0 6.0 0.00 0.00 0.00 49 1015.7
20260906003356 72 270 2.0 6.0 0.00 0.00 0.00 49 1015.8
20260906002851 72 264 2.0 7.0 0.00 0.00 0.00 49 1015.8
20260906002350 72 263 4.0 7.0 0.00 0.00 0.00 49 1015.5
20260906001846 73 254 4.0 7.0 0.00 0.00 0.00 47 1015.5
20260906001342 73 279 5.0 9.0 0.00 0.00 0.00 47 1015.5
20260906000836 75 240 2.0 9.0 0.00 0.00 0.00 47 1015.5
20260906000333 75 251 3.0 9.0 0.00 0.00 0.00 46 1015.4
20260905235831 75 279 4.0 5.0 0.00 0.00 0.00 48 1015.1
20260905235326 75 231 5.0 8.0 0.00 0.00 0.00 46 1015.2
20260905234821 75 36 2.0 4.0 0.00 0.00 0.00 45 1015.4
20260905234316 75 266 3.0 7.0 0.00 0.00 0.00 46 1015.2
20260905233811 75 270 3.0 9.0 0.00 0.00 0.00 46 1015.4
20260905233306 76 345 1.0 4.0 0.00 0.00 0.00 45 1015.1
20260905232805 75 292 3.0 6.0 0.00 0.00 0.00 45 1015.4
20260905232305 75 340 3.0 3.0 0.00 0.00 0.00 45 1015.1